DateTimeUTC,F1_A11,F1_S11,BsB_S11,BsG_S11,BsR_S11,BbsB_S11,BbsG_S11,BbsR_S11,BaB_A11,BaG_A11,BaR_A11,Tu_S11,T_S11,Uu_S11,U_S11,P_S11,T1_A11
2021-10-25T06:00:00Z,00000200,21000000,,,,,,,-000.20,-000.04,-000.15,19.5,26.4,,00.0,0630.3,31.2
2021-10-25T06:01:00Z,00000200,21000000,,,,,,,0000.13,-000.55,0000.08,19.5,26.4,,00.0,0630.3,31.2
2021-10-25T06:02:00Z,00000200,21000000,,,,,,,-000.37,0000.27,-000.33,19.4,26.4,,00.0,0630.3,31.2
2021-10-25T06:03:00Z,00000200,61000000,,,,,,,0000.13,-000.09,0000.06,19.4,26.4,,00.0,0630.3,31.2
2021-10-25T06:04:00Z,00000200,41000000,-000.74,0000.02,0000.15,-000.48,0000.10,-000.01,0000.29,0000.07,0000.01,19.4,26.2,,00.0,0631.1,31.2
2021-10-25T06:05:00Z,00000200,01000000,0000.46,0000.03,0000.02,0000.06,-000.16,0000.16,-000.33,-000.25,-000.11,19.4,26.1,,00.0,0631.1,31.2
2021-10-25T06:06:00Z,00000200,01000000,0000.45,-000.08,0000.58,0000.06,0000.15,0000.06,0000.59,0000.75,0000.55,19.4,26.1,,00.0,0631.1,31.2
2021-10-25T06:07:00Z,00000200,01000000,0000.22,0000.14,0000.27,0000.43,-000.23,-000.19,0000.38,0000.01,0000.48,19.4,26.1,,00.0,0631.1,31.2
2021-10-25T06:08:00Z,00000200,01000000,0000.44,0000.08,-000.06,-000.00,-000.43,0000.59,0000.01,0000.21,-000.42,19.5,26.2,,00.0,0631.1,31.2
2021-10-25T06:09:00Z,00000200,01000000,-000.03,0000.19,0000.32,-000.48,0000.44,0000.31,-000.02,0000.09,0000.45,19.6,26.2,,00.0,0631.2,31.2
2021-10-25T06:10:00Z,00000200,01000000,0000.15,-000.09,0000.06,-000.12,-000.05,0000.25,0000.03,-000.29,-000.22,19.7,26.2,,00.0,0631.2,31.2
2021-10-25T06:11:00Z,00000200,01000000,0000.36,0000.14,0000.55,0000.10,0000.05,0000.09,-000.10,0000.68,-000.05,19.8,26.3,,00.0,0631.2,31.2
2021-10-25T06:12:00Z,00000200,01000000,0000.46,0000.16,0000.12,0000.49,0000.25,-000.14,0000.04,-000.16,0000.20,19.8,26.3,,00.0,0631.2,31.2
2021-10-25T06:13:00Z,00000200,01000000,0000.30,-000.10,0000.28,0000.39,-000.00,0000.49,0000.18,-000.12,-000.05,19.8,26.3,,00.0,0631.2,31.2
2021-10-25T06:14:00Z,00000200,01000000,-000.61,0000.11,0000.31,0000.37,-000.31,0000.24,-000.15,0000.00,0000.06,19.8,26.3,,00.0,0631.2,31.2
2021-10-25T06:15:00Z,00000200,01000000,0000.08,-000.02,0000.32,0000.02,-000.05,0000.21,-000.25,-000.34,0000.02,19.7,26.2,,00.0,0631.3,31.2
2021-10-25T06:16:00Z,00000200,01000000,0000.10,0000.20,0000.22,-000.38,0000.13,0000.01,0000.23,0000.22,-000.00,19.6,26.2,,00.0,0631.2,31.2
2021-10-25T06:17:00Z,00000200,01000000,-000.61,-000.23,-000.07,-000.12,-000.06,0000.04,-000.44,-000.19,-000.26,19.6,26.1,,00.0,0631.2,31.2
2021-10-25T06:18:00Z,00000200,01000000,-000.34,-000.36,0000.20,0000.25,-000.06,0000.03,0000.56,0000.39,-000.06,19.5,26.1,,00.0,0631.2,31.2
2021-10-25T06:19:00Z,00000200,01000000,-000.33,0000.21,0000.21,0000.58,-000.06,0000.18,0000.49,0000.34,0000.45,19.4,26.1,,00.0,0631.2,31.2
2021-10-25T06:20:00Z,00000200,01000000,-000.46,-000.32,0000.08,-000.50,0000.13,0000.13,-000.21,-000.02,-000.07,19.4,26.0,,00.0,0631.1,31.2
2021-10-25T06:21:00Z,00000200,01000000,0000.44,-000.12,0000.46,0000.17,0000.22,-000.26,-000.02,-000.10,0000.09,19.4,26.1,,00.0,0631.2,31.2
2021-10-25T06:22:00Z,00000200,01000000,0000.14,0000.26,0000.27,-000.04,0000.09,0000.29,0000.21,0000.29,0000.03,19.5,26.1,,00.0,0631.2,31.2
2021-10-25T06:23:00Z,00000200,01000000,0000.69,0000.17,0000.41,0000.64,0000.07,-000.02,0000.07,0000.14,0000.59,19.6,26.1,,00.0,0631.2,31.2
2021-10-25T06:24:00Z,00000200,01000000,-000.21,-000.18,-000.11,0000.60,-000.19,0000.16,0000.43,0000.00,-000.07,19.6,26.1,,00.0,0631.2,31.2
2021-10-25T06:25:00Z,00000200,01000000,0000.03,0000.14,0000.09,0000.63,-000.31,0000.60,0000.14,0000.65,0000.13,19.7,26.2,,00.0,0631.3,31.2
2021-10-25T06:26:00Z,00000200,01000000,0000.33,-000.21,0000.29,-000.04,0000.05,0000.34,0000.06,0000.30,0000.11,19.8,26.2,,00.0,0631.3,31.2
2021-10-25T06:27:00Z,00000200,01000000,0000.12,-000.16,0000.19,0000.23,0000.01,0000.27,0000.24,-000.29,0000.38,19.9,26.3,,00.0,0631.3,31.2
2021-10-25T06:28:00Z,00000200,01000000,0000.72,0000.03,0000.03,0000.91,-000.12,0000.30,0000.12,-000.10,-000.37,19.8,26.3,,00.0,0631.3,31.2
2021-10-25T06:29:00Z,00000200,01000000,0000.77,0000.01,0000.26,0000.22,0000.00,-000.30,-000.31,-000.49,-000.08,19.7,26.2,,00.0,0631.3,31.2
2021-10-25T06:30:00Z,00000200,01000000,0000.15,-000.11,0000.36,-000.27,0000.03,-000.04,0000.00,0000.27,-000.01,19.7,26.2,,00.0,0631.3,31.2
2021-10-25T06:31:00Z,00000200,01000000,0000.68,0000.26,0000.14,0000.16,0000.03,0000.02,-000.57,-000.42,-000.19,19.6,26.1,,00.0,0631.4,31.2
2021-10-25T06:32:00Z,00000200,01000000,0000.69,0000.10,0000.22,-000.42,-000.01,0000.20,-000.01,0000.01,-000.19,19.6,26.1,,00.0,0631.3,31.2
2021-10-25T06:33:00Z,00000200,01000000,-000.35,-000.16,0000.18,0000.27,-000.12,0000.17,0000.25,0000.37,-000.18,19.5,26.1,,00.0,0631.3,31.2
2021-10-25T06:34:00Z,00000200,01000000,-000.48,0000.12,0000.13,0000.00,0000.13,0000.04,0000.06,-000.23,0000.25,19.4,26.0,,00.0,0631.4,31.2
2021-10-25T06:35:00Z,00000200,01000000,0000.36,0000.23,0000.35,-000.03,0000.03,0000.02,-000.05,0000.22,0000.37,19.4,26.0,,00.0,0631.4,31.2
2021-10-25T06:36:00Z,00000200,01000000,0000.07,0000.01,0000.39,-000.41,0000.04,0000.14,0000.28,-000.37,0000.24,19.4,26.0,,00.0,0631.4,31.2
2021-10-25T06:37:00Z,00000200,01000000,0000.68,0000.03,0000.02,0000.27,0000.21,0000.01,-000.04,0000.40,-000.19,19.5,26.0,,00.0,0631.4,31.2
2021-10-25T06:38:00Z,00000200,01000000,0000.19,-000.09,0000.24,0000.36,-000.04,0000.31,0000.13,-000.21,0000.15,19.5,26.1,,00.0,0631.4,31.2
2021-10-25T06:39:00Z,00000200,01000000,0000.99,-000.03,0000.19,0000.14,0000.14,0000.26,0000.04,0000.20,0000.11,19.6,26.1,,00.0,0631.5,31.2
2021-10-25T06:40:00Z,00000200,01000000,0000.52,0000.13,0000.01,0000.44,0000.24,0000.06,0000.30,0000.19,0000.05,19.7,26.2,,00.0,0631.5,31.2
2021-10-25T06:41:00Z,00000200,01000000,0000.09,0000.06,0000.18,0000.06,-000.23,-000.01,-000.37,0000.17,-000.09,19.8,26.2,,00.0,0631.6,31.2
2021-10-25T06:42:00Z,00000200,01000000,-000.64,0000.18,0000.25,0000.32,0000.06,-000.03,0000.05,0000.03,-000.17,19.8,26.2,,00.0,0631.5,31.2
2021-10-25T06:43:00Z,00000200,01000000,-000.59,0000.02,0000.37,0000.08,0000.10,0000.08,-000.45,-000.96,-000.20,19.7,26.2,,00.0,0631.6,31.2
2021-10-25T06:44:00Z,00000200,01000000,-000.30,0000.03,0000.23,-000.42,0000.04,0000.27,0000.33,0000.58,0000.13,19.6,26.1,,00.0,0631.6,31.2
2021-10-25T06:45:00Z,00000200,01000000,0000.07,-000.13,-000.01,-000.07,-000.08,-000.01,0000.17,0000.14,0000.12,19.6,26.1,,00.0,0631.6,31.2
2021-10-25T06:46:00Z,00000200,01000000,0000.62,-000.23,0000.25,0000.32,0000.20,0000.26,0000.19,-000.12,-000.16,19.5,26.0,,00.0,0631.5,31.2
2021-10-25T06:47:00Z,00000200,01000000,-000.17,0000.25,0000.03,0000.55,-000.16,0000.21,-000.19,-000.13,0000.12,19.4,26.0,,00.0,0631.6,31.2
2021-10-25T06:48:00Z,00000200,01000000,0000.70,-000.28,0000.38,0000.11,-000.05,-000.13,-000.54,-000.02,-000.17,19.4,26.0,,00.0,0631.6,31.2
2021-10-25T06:49:00Z,00000200,01000000,-000.32,-000.01,0000.57,-000.16,-000.16,0000.43,0000.75,0000.41,0000.12,19.3,26.0,,00.0,0631.6,31.2
2021-10-25T06:50:00Z,00000200,01000000,0000.73,-000.02,0000.46,0000.35,-000.33,0000.40,-000.16,-000.10,0000.00,19.3,25.9,,00.0,0631.6,31.1
2021-10-25T06:51:00Z,00000200,01000000,-000.24,-000.21,0000.61,0000.30,0000.18,0000.14,-000.24,-000.08,0000.18,19.3,25.9,,00.0,0631.7,31.2
2021-10-25T06:52:00Z,00000200,01000000,0000.44,-000.25,0000.19,0000.20,0000.10,0000.36,0000.27,0000.15,-000.09,19.4,26.0,,00.0,0631.7,31.2
2021-10-25T06:53:00Z,00000200,01000000,-000.26,-000.16,0000.43,0000.31,0000.15,0000.54,0000.31,0000.44,0000.35,19.4,26.0,,00.0,0631.7,31.2
2021-10-25T06:54:00Z,00000200,01000000,-000.29,-000.17,-000.04,0000.65,-000.08,0000.17,-000.19,-000.27,-000.10,19.5,26.0,,00.0,0631.7,31.2
2021-10-25T06:55:00Z,00000200,01000000,-000.04,0000.12,-000.06,0000.57,-000.21,0000.14,-000.33,-000.13,0000.20,19.6,26.0,,00.0,0631.8,31.2
2021-10-25T06:56:00Z,00000200,01000000,0000.32,0000.17,0000.21,0000.43,-000.03,0000.44,0000.38,0000.23,-000.24,19.7,26.1,,00.0,0631.8,31.2
2021-10-25T06:57:00Z,00000200,41000000,,,,,,,0000.01,0000.38,0000.40,19.8,26.1,,00.0,0631.8,31.2
2021-10-25T06:58:00Z,00000200,61000000,,,,,,,-000.13,-000.59,-000.51,19.5,26.2,,00.0,0631.0,31.2
2021-10-25T06:59:00Z,00000200,21000000,,,,,,,0000.15,0000.13,0000.65,19.5,26.3,,00.0,0630.9,31.2
